Location: Angwan Shehu
(11.2514°N, 7.4613°E)
Time: 02:14:38
(UTC+00:00)

Meteor 2-11 Rocket - Pass Details

Date: 14 November 2019
Orbit: 940 x 956 km, 82.5° (Epoch: 14 December)

Event Time Altitude Azimuth Distance (km) Brightness Sun altitude
Rises 18:28:37 0° 356° (N) 3,611 7.4 -20.9°
Reaches altitude 10° 18:31:06 10° 356° (N) 2,668 6.7 -21.5°
Maximum altitude 18:37:13 89° 263° (W) 956 4.4 -22.9°
Drops below altitude 10° 18:43:21 10° 177° (S) 2,677 6.9 -24.4°
Sets 18:45:51 0° 177° (S) 3,623 7.6 -25.0°
